FW7817 Weather Reports


Display with metric or nautical units.
time (UTC)temp
F
wind
direction
speed
MPH
gust
MPH
rain 1hr
in
rain 24hr
in
rain mn
in
humidity
%
barometer
mb
20260508120834 58 190 1.0 4.0 0.00 0.00 0.00 67 1009.7
20260508120334 58 233 1.0 5.0 0.00 0.00 0.00 66 1009.7
20260508115325 58 165 1.0 6.0 0.00 0.00 0.00 66 1009.5
20260508114819 58 158 1.0 3.0 0.00 0.00 0.00 65 1009.3
20260508114313 58 176 1.0 4.0 0.00 0.00 0.00 65 1009.3
20260508113807 58 165 1.0 4.0 0.00 0.00 0.00 65 1009.3
20260508113300 58 196 1.0 3.0 0.00 0.00 0.00 65 1009.4
20260508112755 58 92 1.0 3.0 0.00 0.00 0.00 65 1009.4
20260508112248 58 203 1.0 3.0 0.00 0.00 0.00 65 1009.5
20260508111744 58 130 1.0 9.0 0.00 0.00 0.00 65 1009.5
20260508110730 58 188 1.0 7.0 0.00 0.00 0.00 64 1009.3
20260508110225 58 268 1.0 4.0 0.00 0.00 0.00 64 1009.4
20260508105719 58 157 1.0 4.0 0.00 0.00 0.00 65 1009.4
20260508105213 57 190 1.0 3.0 0.00 0.00 0.00 65 1009.5
20260508104708 57 155 1.0 4.0 0.00 0.00 0.00 65 1009.5
20260508104201 57 271 1.0 4.0 0.00 0.00 0.00 66 1009.5
20260508103150 57 195 0.0 3.0 0.00 0.00 0.00 66 1009.6
20260508102642 57 173 1.0 4.0 0.00 0.00 0.00 66 1009.7
20260508101630 57 194 1.0 8.0 0.00 0.00 0.00 66 1010.1
20260508101126 57 261 1.0 3.0 0.00 0.00 0.00 67 1009.8
20260508100619 57 271 1.0 3.0 0.00 0.00 0.00 66 1009.8
20260508100113 57 163 1.0 6.0 0.00 0.00 0.00 67 1009.6
20260508095606 57 205 1.0 6.0 0.00 0.00 0.00 67 1009.8
20260508095101 57 209 1.0 6.0 0.00 0.00 0.00 67 1010.0
20260508094555 57 171 1.0 7.0 0.00 0.00 0.00 67 1010.0
20260508093543 57 244 1.0 5.0 0.00 0.00 0.00 67 1009.7
20260508093036 57 196 1.0 4.0 0.00 0.00 0.00 67 1009.7
20260508092531 57 95 1.0 7.0 0.00 0.00 0.00 67 1009.6
20260508092025 57 162 1.0 7.0 0.00 0.00 0.00 66 1009.4
20260508085455 58 215 0.0 2.0 0.00 0.00 0.00 64 1010.0
20260508083938 58 216 1.0 4.0 0.00 0.00 0.00 63 1009.7
20260508083432 58 259 1.0 4.0 0.00 0.00 0.00 62 1009.8
20260508082925 59 271 1.0 4.0 0.00 0.00 0.00 62 1009.7
20260508081913 59 194 1.0 8.0 0.00 0.00 0.00 61 1009.7
20260508081407 59 143 0.0 7.0 0.00 0.00 0.00 61 1009.8
20260508080355 60 87 1.0 4.0 0.00 0.00 0.00 61 1010.0
20260508074332 60 226 0.0 3.0 0.00 0.00 0.00 60 1010.2
20260508073828 60 218 0.0 5.0 0.00 0.00 0.00 60 1010.3
20260508073328 60 171 1.0 5.0 0.00 0.00 0.00 60 1010.4
20260508072827 60 202 0.0 3.0 0.00 0.00 0.00 60 1010.5
20260508072328 60 197 0.0 3.0 0.00 0.00 0.00 59 1010.5
20260508071826 61 155 0.0 3.0 0.00 0.00 0.00 59 1010.6
20260508071326 61 183 1.0 3.0 0.00 0.00 0.00 59 1010.7
20260508070327 61 153 1.0 4.0 0.00 0.00 0.00 58 1010.8
20260508065325 61 151 1.0 3.0 0.00 0.00 0.00 57 1010.8
20260508063321 62 279 1.0 4.0 0.00 0.00 0.00 57 1011.1
20260508062821 62 154 2.0 7.0 0.00 0.00 0.00 56 1011.2
20260508062321 62 137 1.0 7.0 0.00 0.00 0.00 57 1011.3
20260508061821 61 150 1.0 7.0 0.00 0.00 0.00 58 1011.2
20260508060821 61 223 1.0 6.0 0.00 0.00 0.00 59 1011.5
20260508060322 61 273 1.0 3.0 0.00 0.00 0.00 59 1011.8
20260508055821 61 128 1.0 4.0 0.00 0.00 0.00 59 1011.8
20260508055321 61 178 1.0 6.0 0.00 0.00 0.00 59 1011.8
20260508054821 61 165 1.0 6.0 0.00 0.00 0.00 60 1011.8
20260508053821 61 218 2.0 6.0 0.00 0.00 0.00 61 1011.8
20260508053322 61 153 2.0 7.0 0.00 0.00 0.00 61 1011.7
20260508052321 60 136 1.0 4.0 0.00 0.00 0.00 61 1011.4
20260508051821 60 165 1.0 6.0 0.00 0.00 0.00 61 1011.3
20260508050820 60 215 1.0 8.0 0.00 0.00 0.00 62 1011.3
20260508050314 60 142 1.0 4.0 0.00 0.00 0.00 62 1011.4
20260508045808 60 97 1.0 4.0 0.00 0.00 0.00 62 1011.4
20260508045306 60 171 1.0 4.0 0.00 0.00 0.00 61 1011.4
20260508044757 60 132 1.0 3.0 0.00 0.00 0.00 61 1011.5
20260508044252 60 177 1.0 3.0 0.00 0.00 0.00 61 1011.5
20260508043746 60 146 1.0 3.0 0.00 0.00 0.00 61 1011.5
20260508043240 60 132 0.0 4.0 0.00 0.00 0.00 61 1011.5
20260508042733 60 132 1.0 4.0 0.00 0.00 0.00 61 1011.6
20260508041722 61 150 1.0 8.0 0.00 0.00 0.00 60 1011.5
20260508041216 61 178 1.0 8.0 0.00 0.00 0.00 60 1011.5
20260508040710 61 142 2.0 6.0 0.00 0.00 0.00 60 1011.5
20260508040204 61 169 2.0 6.0 0.00 0.00 0.00 60 1012.0
20260508035657 61 202 2.0 7.0 0.00 0.00 0.00 60 1011.5
20260508035151 61 189 2.0 7.0 0.00 0.00 0.00 59 1011.5
20260508034646 62 164 2.0 9.0 0.00 0.00 0.00 59 1011.5
20260508034139 62 121 2.0 9.0 0.00 0.00 0.00 59 1011.6
20260508033633 62 153 2.0 9.0 0.00 0.00 0.00 59 1011.5
20260508033127 62 156 2.0 9.0 0.00 0.00 0.00 58 1011.5
20260508032621 62 144 2.0 5.0 0.00 0.00 0.00 58 1011.5
20260508032114 62 138 2.0 5.0 0.00 0.00 0.00 59 1011.5
20260508031610 62 128 1.0 4.0 0.00 0.00 0.00 58 1011.4
20260508031103 62 136 1.0 4.0 0.00 0.00 0.00 59 1011.5
20260508030052 62 140 1.0 7.0 0.00 0.00 0.00 58 1011.3
20260508025546 63 150 1.0 4.0 0.00 0.00 0.00 57 1011.3
20260508025040 63 151 2.0 4.0 0.00 0.00 0.00 57 1011.3
20260508024532 63 128 1.0 4.0 0.00 0.00 0.00 57 1011.2
20260508024027 63 151 1.0 4.0 0.00 0.00 0.00 56 1011.1
20260508023521 63 123 2.0 5.0 0.00 0.00 0.00 56 1011.1
20260508023015 64 155 2.0 5.0 0.00 0.00 0.00 55 1011.1
20260508022508 64 171 1.0 4.0 0.00 0.00 0.00 55 1011.1
20260508022003 64 152 1.0 3.0 0.00 0.00 0.00 54 1011.0
20260508021456 65 150 1.0 7.0 0.00 0.00 0.00 54 1010.9
20260508020952 65 178 1.0 7.0 0.00 0.00 0.00 53 1010.8
20260508020445 65 165 1.0 5.0 0.00 0.00 0.00 52 1010.7
20260508015941 65 162 2.0 6.0 0.00 0.00 0.00 52 1010.7
20260508015441 65 161 2.0 6.0 0.00 0.00 0.00 52 1010.7
20260508014941 66 151 2.0 5.0 0.00 0.00 0.00 51 1010.7
20260508013938 66 174 1.0 4.0 0.00 0.00 0.00 50 1010.5
20260508013439 66 138 1.0 4.0 0.00 0.00 0.00 50 1010.5
20260508012938 67 141 1.0 4.0 0.00 0.00 0.00 49 1010.4
20260508012437 67 153 1.0 5.0 0.00 0.00 0.00 49 1010.5
20260508011937 67 148 0.0 5.0 0.00 0.00 0.00 49 1010.5
20260508010435 67 151 1.0 3.0 0.00 0.00 0.00 48 1010.4
20260508005933 68 151 0.0 3.0 0.00 0.00 0.00 48 1010.4
20260508005431 68 207 0.0 1.0 0.00 0.00 0.00 47 1010.4
20260508004928 68 207 0.0 1.0 0.00 0.00 0.00 47 1010.4
20260508004428 69 207 0.0 2.0 0.00 0.00 0.00 46 1010.4
20260508003924 69 207 0.0 2.0 0.00 0.00 0.00 46 1010.4
20260508003424 69 179 0.0 2.0 0.00 0.00 0.00 46 1010.4
20260508002923 69 178 1.0 3.0 0.00 0.00 0.00 45 1010.4
20260508002419 70 177 1.0 3.0 0.00 0.00 0.00 45 1010.5
20260508001920 70 176 1.0 2.0 0.00 0.00 0.00 45 1010.5
20260508000919 71 148 1.0 3.0 0.00 0.00 0.00 43 1010.5
20260507234918 71 236 1.0 4.0 0.00 0.00 0.00 42 1010.5
20260507234419 72 165 1.0 4.0 0.00 0.00 0.00 40 1010.5
20260507232919 73 193 1.0 9.0 0.00 0.00 0.00 41 1010.5
20260507232419 73 177 2.0 9.0 0.00 0.00 0.00 41 1010.5
20260507231918 73 182 1.0 4.0 0.00 0.00 0.00 40 1010.5
20260507230919 73 256 1.0 4.0 0.00 0.00 0.00 42 1010.6
20260507230417 73 202 1.0 6.0 0.00 0.00 0.00 42 1010.7
20260507225916 73 215 1.0 6.0 0.00 0.00 0.00 40 1010.8
20260507225411 73 190 1.0 4.0 0.00 0.00 0.00 40 1010.7
20260507224358 73 128 1.0 7.0 0.00 0.00 0.00 41 1010.8
20260507223853 73 231 2.0 8.0 0.00 0.00 0.00 40 1011.0
20260507223352 73 194 2.0 8.0 0.00 0.00 0.00 41 1010.9
20260507222852 73 263 2.0 8.0 0.00 0.00 0.00 41 1011.0
20260507222352 72 155 2.0 8.0 0.00 0.00 0.00 42 1011.1
20260507221854 72 213 2.0 8.0 0.00 0.00 0.00 41 1011.1
20260507221355 71 200 2.0 8.0 0.00 0.00 0.00 42 1011.2
20260507220851 72 201 2.0 8.0 0.00 0.00 0.00 41 1011.2
20260507220348 72 261 2.0 8.0 0.00 0.00 0.00 40 1011.4
20260507214851 72 150 2.0 7.0 0.00 0.00 0.00 42 1011.6
20260507214346 72 221 2.0 11.0 0.00 0.00 0.00 41 1011.5
20260507213846 72 165 2.0 11.0 0.00 0.00 0.00 44 1011.6
20260507213346 72 264 2.0 7.0 0.00 0.00 0.00 41 1011.5
20260507212844 72 244 2.0 9.0 0.00 0.00 0.00 42 1011.6
20260507211844 72 202 2.0 12.0 0.00 0.00 0.00 43 1011.7
20260507211343 72 67 3.0 12.0 0.00 0.00 0.00 41 1011.7
20260507210839 72 290 3.0 11.0 0.00 0.00 0.00 42 1011.8
20260507210331 72 302 3.0 11.0 0.00 0.00 0.00 42 1011.8
20260507205826 72 211 3.0 11.0 0.00 0.00 0.00 40 1011.9
20260507205320 73 200 2.0 11.0 0.00 0.00 0.00 42 1012.0
20260507204814 72 225 3.0 10.0 0.00 0.00 0.00 43 1012.2
20260507203802 72 70 2.0 9.0 0.00 0.00 0.00 45 1012.4
20260507203255 72 221 2.0 9.0 0.00 0.00 0.00 43 1012.5
20260507202750 72 209 3.0 8.0 0.00 0.00 0.00 45 1012.5
20260507202246 71 142 3.0 9.0 0.00 0.00 0.00 45 1012.7
20260507201233 71 147 3.0 10.0 0.00 0.00 0.00 45 1013.0
20260507200726 71 263 3.0 11.0 0.00 0.00 0.00 46 1013.0
20260507200220 71 217 3.0 11.0 0.00 0.00 0.00 46 1013.2
20260507195714 71 229 3.0 11.0 0.00 0.00 0.00 46 1013.3
20260507195208 71 153 3.0 12.0 0.00 0.00 0.00 48 1013.2
20260507194702 71 269 4.0 15.0 0.00 0.00 0.00 47 1013.3
20260507194156 70 246 4.0 15.0 0.00 0.00 0.00 47 1013.4
20260507193650 70 188 4.0 13.0 0.00 0.00 0.00 45 1013.4
20260507193144 70 162 3.0 13.0 0.00 0.00 0.00 46 1013.5
20260507192638 70 258 3.0 10.0 0.00 0.00 0.00 50 1013.6
20260507192132 69 158 3.0 10.0 0.00 0.00 0.00 47 1013.7
20260507191626 69 284 3.0 14.0 0.00 0.00 0.00 49 1013.8
20260507190613 69 203 3.0 10.0 0.00 0.00 0.00 48 1013.9
20260507190108 69 238 3.0 10.0 0.00 0.00 0.00 50 1014.0
20260507185601 69 230 3.0 14.0 0.00 0.00 0.00 51 1014.0
20260507185057 69 292 3.0 14.0 0.00 0.00 0.00 49 1014.2
20260507184044 69 174 3.0 9.0 0.00 0.00 0.00 51 1014.3
20260507183032 68 285 3.0 10.0 0.00 0.00 0.00 53 1014.4
20260507182526 68 136 3.0 10.0 0.00 0.00 0.00 53 1014.3
20260507182020 68 244 4.0 12.0 0.00 0.00 0.00 54 1014.6
20260507181514 67 238 4.0 12.0 0.00 0.00 0.00 52 1014.6
20260507181007 67 263 3.0 11.0 0.00 0.00 0.00 53 1014.7
20260507180503 68 182 2.0 5.0 0.00 0.00 0.00 55 1014.7
20260507175452 67 262 3.0 13.0 0.00 0.00 0.00 57 1015.0
20260507174943 66 225 4.0 13.0 0.00 0.00 0.00 53 1015.1
20260507174438 66 259 4.0 13.0 0.00 0.00 0.00 55 1015.1
20260507173932 66 211 3.0 13.0 0.00 0.00 0.00 55 1015.2
20260507173426 67 209 2.0 9.0 0.00 0.00 0.00 55 1015.2
20260507172921 66 221 3.0 10.0 0.00 0.00 0.00 54 1015.3
20260507172413 66 222 3.0 10.0 0.00 0.00 0.00 57 1015.5
20260507171909 65 268 3.0 12.0 0.00 0.00 0.00 55 1015.6
20260507171402 66 251 3.0 13.0 0.00 0.00 0.00 54 1015.7
20260507170857 65 254 4.0 13.0 0.00 0.00 0.00 56 1015.8
20260507165845 65 186 3.0 13.0 0.00 0.00 0.00 54 1016.0
20260507165343 65 250 2.0 13.0 0.00 0.00 0.00 55 1016.1
20260507164842 65 263 3.0 12.0 0.00 0.00 0.00 56 1016.1
20260507164343 65 246 4.0 16.0 0.00 0.00 0.00 55 1016.1
20260507163842 65 281 4.0 19.0 0.00 0.00 0.00 56 1016.1
20260507163342 65 252 5.0 19.0 0.00 0.00 0.00 54 1016.2
20260507162841 65 236 3.0 12.0 0.00 0.00 0.00 54 1016.3
20260507162341 65 224 2.0 11.0 0.00 0.00 0.00 56 1016.2
20260507161341 65 271 3.0 11.0 0.00 0.00 0.00 55 1016.6
20260507160841 64 284 3.0 11.0 0.00 0.00 0.00 56 1016.6
20260507160341 64 246 3.0 10.0 0.00 0.00 0.00 57 1016.6
20260507155843 64 195 3.0 16.0 0.00 0.00 0.00 56 1016.7
20260507155343 63 238 4.0 19.0 0.00 0.00 0.00 55 1016.7
20260507154842 63 281 4.0 19.0 0.00 0.00 0.00 56 1016.7
20260507154342 63 246 3.0 11.0 0.00 0.00 0.00 57 1016.9
20260507153842 63 245 3.0 11.0 0.00 0.00 0.00 56 1016.7
20260507153342 63 192 3.0 13.0 0.00 0.00 0.00 58 1016.7
20260507152842 63 257 3.0 13.0 0.00 0.00 0.00 59 1016.7
20260507151842 62 263 3.0 12.0 0.00 0.00 0.00 59 1016.9
20260507150842 62 277 3.0 13.0 0.00 0.00 0.00 60 1017.1
20260507150342 62 240 3.0 12.0 0.00 0.00 0.00 59 1017.2
20260507145841 61 237 3.0 12.0 0.00 0.00 0.00 60 1017.1
20260507145341 61 265 3.0 12.0 0.00 0.00 0.00 60 1017.3
20260507144841 61 260 3.0 12.0 0.00 0.00 0.00 62 1017.3
20260507143843 60 213 2.0 8.0 0.00 0.00 0.00 61 1017.4
20260507143340 60 227 2.0 9.0 0.00 0.00 0.00 63 1017.3
20260507141828 58 240 3.0 11.0 0.00 0.00 0.00 65 1017.4
20260507141321 58 238 3.0 15.0 0.00 0.00 0.00 64 1017.3
20260507140815 58 238 4.0 15.0 0.00 0.00 0.00 65 1017.4
20260507135808 57 235 3.0 10.0 0.00 0.00 0.00 68 1017.5
20260507135306 56 257 3.0 10.0 0.00 0.00 0.00 66 1017.4
20260507134806 56 227 3.0 8.0 0.00 0.00 0.00 68 1017.5
20260507134306 56 273 2.0 10.0 0.00 0.00 0.00 69 1017.4
20260507133306 54 238 2.0 8.0 0.00 0.00 0.00 72 1017.5
20260507132807 53 254 2.0 8.0 0.00 0.00 0.00 74 1017.6
20260507131805 51 252 2.0 7.0 0.00 0.00 0.00 78 1017.5
20260507131305 50 269 2.0 7.0 0.00 0.00 0.00 81 1017.6
20260507130805 49 233 1.0 4.0 0.00 0.00 0.00 83 1017.6
20260507130305 48 254 1.0 4.0 0.00 0.00 0.00 85 1017.6
20260507125805 47 244 0.0 2.0 0.00 0.00 0.00 85 1017.7
20260507125306 47 244 0.0 3.0 0.00 0.00 0.00 85 1017.7
20260507124801 46 244 1.0 3.0 0.00 0.00 0.00 85 1017.5
20260507124259 46 262 0.0 3.0 0.00 0.00 0.00 85 1017.6
20260507123758 46 226 0.0 1.0 0.00 0.00 0.00 84 1017.5
20260507123253 46 226 0.0 1.0 0.00 0.00 0.00 84 1017.6
20260507122747 45 237 0.0 1.0 0.00 0.00 0.00 84 1017.6
20260507122240 45 246 0.0 2.0 0.00 0.00 0.00 84 1017.6
20260507121735 45 247 0.0 3.0 0.00 0.00 0.00 84 1017.6